STARLINK-35199, 65858

Orbit data source: Space-Track

STARLINK-35199, 65858 is a payload satellite owned by SpaceX/Seattle (US) in LEO that was launched on Fri, 03 Oct 2025 UTC via an FALCON 9 launch vehicle from the Air Force Western Test Range (AFWTR). Payload-class satellites include a variety of spacecraft equipped with specific instruments for various scientific and technological missions. These include communications satellites like Starlink; space stations such as the ISS; scientific satellites like the Hubble; Earth observation satellites from companies like Planet Labs, Umbra, and HawkEye 360; GPS; miniature CubeSats for education and research; and military/defense satellites.

Loading next visibility...
Identifier
65858, 2025-223E
Orbit
LEO
Country
Flag of USUS
Related business
Manufacturer
SpaceX/Seattle
Mission
Operational spacecraft
Bus & Motor
STARLINK V2MO, Unknown motor
Mass
575 kg wet, ~530 kg dry
Launch date (UTC)
2025-10-03 (2 weeks ago)
Launch vehicle
FALCON 9
Launch site
Air Force Western Test Range (AFWTR)
Object type
Payload
Rocket body
Debris
Shape & HBR
Unknown shape, 17.7 m
Radar Cross Section
RCS unknown

Expand to show TLE details & history
Last TLE update: 13 hours ago

TLE from 13 hours ago
0 STARLINK-35199
1 65858U 25223E   25290.57542674  .00051819  00000-0  38320-3 0  9997
2 65858  53.1521 243.2339 0003444 168.4587 191.6512 15.72454503  2239
Epoch: 2025-10-17T13:48Z
TLE epoch observation values (Epoch: 2025-10-17T13:48:36.870Z)
Latitude
0.00002°
Longitude
9.76146°
Altitude
355.07 km
Speed
7.696 km/s
True Right ascension
16h 12m 56s
True Declination
0° 00' 00"
Sunlit
Object was in daylight at epoch
Visualization orbit readout
Latitude
Unknown
Longitude
Unknown
Altitude
Unknown
Speed
Unknown
Apparent Right ascension
Unknown
Apparent Declination
Unknown
Sunlit
N/A
Visualization observer readout
Local Sidereal Time
21:26:36
Azimuth
Unknown
Elevation
Unknown
Doppler factor
Unknown
Orbital elements
Apogee altitude
354.465 km
Perigee altitude
349.829 km
Semi-major axis
6,730.284 km
Eccentricity
0.00034
Inclination
53.1521°
RAAN
243.2339°
Arg. of periapsis
168.4587°
True anomaly
191.64323°
Mean anomaly
191.6512°
Eccentric anomaly
191.64722°
Mean motion
3.93091 °/min
Orbital period
91.58 mins
BSTAR
0.0003832
Loading maneuver chart data...
Computing Atmospheric mass density...
Loading historical data...
Loading historical data...
Loading historical data...
Loading historical data...
Loading historical data...
Loading historical data...
Loading historical data...

Documentation

Showing up to 5 results
|